EDT,Max TemperatureF,Mean TemperatureF,Min TemperatureF,Max Dew PointF,MeanDew PointF,Min DewpointF,Max Humidity, Mean Humidity, Min Humidity, Max Sea Level PressureIn, Mean Sea Level PressureIn, Min Sea Level PressureIn, Max VisibilityMiles, Mean VisibilityMiles, Min VisibilityMiles, Max Wind SpeedMPH, Mean Wind SpeedMPH, Max Gust SpeedMPH,PrecipitationIn, CloudCover, Events, WindDirDegrees
2012-10-1,91,80,69,75,72,70,100,81,52,29.81,29.75,29.68,10,8,0,14,5,23,0.00,3,,165
2012-10-2,86,80,73,73,71,66,100,81,58,30.00,29.84,29.74,10,10,5,12,6,16,0.00,3,,202
2012-10-3,82,75,68,70,67,64,100,83,54,30.19,30.10,30.00,10,9,4,8,2,,0.00,3,,290
2012-10-4,82,75,68,73,70,66,100,91,74,30.24,30.19,30.15,10,8,2,9,1,,0.00,5,,14
2012-10-5,86,78,69,73,71,70,100,90,62,30.18,30.09,30.01,10,7,0,15,2,,0.00,3,,28
2012-10-6,86,78,69,73,71,68,100,91,62,30.02,29.97,29.89,10,7,0,9,1,,0.00,5,,15
2012-10-7,87,76,66,73,69,66,100,82,49,30.01,29.97,29.93,10,8,0,8,2,,0.00,3,,327
2012-10-8,77,70,62,72,66,59,100,89,78,30.09,30.02,29.97,10,9,5,12,4,,0.00,6,,18
2012-10-9,71,64,57,61,57,55,100,89,68,30.14,30.10,30.06,10,8,2,8,5,,0.00,7,,55
2012-10-10,80,70,60,63,61,59,100,82,51,30.16,30.10,30.05,10,8,2,10,3,16,0.00,4,,307
2012-10-11,80,66,53,63,57,52,100,78,45,30.25,30.19,30.14,10,8,1,9,2,,0.00,0,,50
2012-10-12,84,70,55,66,61,55,100,81,48,30.25,30.19,30.14,10,8,2,9,1,,0.00,0,,350
2012-10-13,82,71,60,66,63,61,100,80,51,30.29,30.23,30.19,10,8,2,15,5,21,0.00,2,,76
2012-10-14,77,68,60,70,66,59,100,93,78,30.23,30.14,30.03,10,9,2,7,3,,0.00,5,,42
2012-10-15,84,74,64,72,67,63,100,84,51,30.03,29.92,29.80,10,8,0,16,3,22,0.00,2,,277
2012-10-16,75,63,51,61,53,48,100,73,38,29.96,29.91,29.87,10,10,7,10,3,,0.00,0,,33
2012-10-17,75,64,53,63,58,54,100,85,57,29.98,29.91,29.86,10,9,2,8,1,,0.00,0,,90
2012-10-18,82,68,55,68,63,55,100,85,58,29.88,29.84,29.79,10,8,0,10,1,,0.00,4,,222
2012-10-19,78,68,55,68,55,46,100,66,32,29.90,29.84,29.80,10,10,5,9,4,,0.00,2,,303
2012-10-20,78,63,48,54,49,46,100,70,36,29.97,29.90,29.86,10,10,10,13,2,18,0.00,0,,284
2012-10-21,78,62,46,55,51,46,100,74,39,30.13,30.06,29.97,10,10,10,9,2,,0.00,0,,19
2012-10-22,78,63,48,57,52,48,100,74,34,30.20,30.15,30.10,10,8,1,14,2,,0.00,0,,74
2012-10-23,82,66,50,64,58,48,100,81,48,30.17,30.11,30.07,10,10,7,12,2,18,0.00,1,,87
2012-10-24,84,70,57,66,63,57,100,83,48,30.14,30.08,30.02,10,7,0,14,4,16,0.00,2,,69
2012-10-25,84,74,64,70,66,63,100,83,54,30.05,29.99,29.95,10,8,4,16,5,20,0.00,3,,62
2012-10-26,82,73,64,66,63,55,100,74,51,29.96,29.87,29.78,10,10,7,18,8,25,0.00,1,,27
2012-10-27,75,68,62,63,60,55,88,74,60,29.78,29.69,29.63,10,10,10,17,11,24,0.00,2,,343
2012-10-28,75,64,53,57,53,45,94,70,50,29.78,29.71,29.66,10,10,10,17,10,28,0.00,2,,308
2012-10-29,64,55,46,43,37,30,76,55,30,29.83,29.76,29.68,10,10,10,21,14,36,0.00,1,,307
2012-10-30,62,52,42,32,30,28,61,45,27,29.89,29.77,29.72,10,10,10,23,11,30,0.00,0,,270
2012-10-31,71,55,39,45,39,32,81,55,33,29.97,29.90,29.85,10,10,10,23,8,30,0.00,0,,260